Location: Sommers-Bausch Observatory
(40.0037°N, 105.2635°W)
Time: 10:38:26
(UTC-06:00)

Daily predictions for brighter satellites

Satellite Brightness Start Highest point End
(mag) Time Altitude Azimuth Time Altitude Azimuth Time Altitude Azimuth
In-Cosmos 22 4.3 20:56:24 10° S 21:02:08 76° E 21:07:53 10° NNE
SL-16 R/B 2.3 20:57:08 10° NNW 21:02:50 84° WSW 21:08:30 10° SSE
Cosmos 1908 4.0 21:02:27 10° N 21:06:03 35° ENE 21:09:40 10° SE
FENGYUN 3A 4.3 21:00:53 10° S 21:06:13 58° W 21:11:34 10° NNW
ERS-1 Rocket 3.0 21:01:31 10° SSE 21:06:32 75° ENE 21:11:35 10° N
H-2A R/B 2.4 21:06:32 10° SSE 21:10:59 59° ENE 21:15:27 10° N
Cosmos 1328 Rocket 3.7 21:09:15 10° N 21:13:43 84° W 21:18:09 10° S
Cosmos 1674 3.0 21:13:58 10° SSE 21:17:38 47° E 21:21:21 10° NNE
Cosmos 1777 Rocket 4.0 21:14:07 10° SSW 21:19:23 84° ESE 21:24:40 10° NNE
DELTA 2 R/B (1) 3.6 21:16:20 10° W 21:21:53 74° SSW 21:27:25 10° ESE
ATLAS CENTAUR R/B 3.5 21:18:43 10° WNW 21:22:13 23° WSW 21:25:29 10° SSW
CZ-2C R/B -0.4 21:22:17 12° S 21:23:27 53° WSW 21:24:48 10° NNW
Cosmos 1939 Rocket 2.8 21:23:15 10° SSE 21:27:12 84° ENE 21:31:07 10° N
NOSS 3-1 (C) 4.0 21:23:48 10° S 21:28:59 34° ESE 21:34:34 10° NE
Cosmos 1300 4.3 21:26:44 10° NNE 21:29:39 20° ENE 21:31:57 13° ESE
Cosmos 405 3.1 21:26:47 10° N 21:30:24 63° E 21:33:50 11° SSE
Cosmos 2228 Rocket 4.4 21:27:36 10° NNW 21:31:48 40° W 21:36:01 10° SSW
Cosmos 1833 4.2 21:29:01 10° SSW 21:34:44 87° ESE 21:40:27 10° NNE
Cosmos 1500 Rocket 4.1 21:30:35 10° SSW 21:34:53 63° W 21:39:17 10° N
Cosmos 1437 Rocket 2.9 21:32:48 10° NNW 21:36:37 71° W 21:40:26 10° S
YAOGAN 6 3.5 21:35:21 15° SE 21:37:58 35° ENE 21:41:17 10° N
Cosmos 2333 Rocket 4.2 21:35:07 10° N 21:38:38 16° NE 21:42:08 10° E
Terra 3.9 21:39:26 10° E 21:41:56 14° ENE 21:44:27 10° NNE
H-2A R/B 3.8 21:39:08 10° ESE 21:42:44 19° ENE 21:46:30 10° NNE
CZ-4 SHROUD 3.2 21:40:50 15° SSE 21:43:16 67° ENE 21:46:24 10° N
deb Chang Zheng 4 4.4 21:42:47 10° N 21:47:01 54° WNW 21:51:15 10° SSW
Delta 2 Rocket 3.4 21:47:03 10° WSW 21:50:22 37° S 21:52:08 21° ESE
Cosmos 1680 Rocket 3.5 21:45:10 10° NNW 21:50:27 81° ENE 21:54:43 16° SSE
COSMOS 2428 3.3 21:45:33 10° NNW 21:51:00 46° ENE 21:55:02 18° SE
CZ-4B R/B 3.7 21:47:36 10° NNE 21:52:47 54° E 21:57:50 10° S
OAO 2 Rocket 4.3 21:49:33 10° SW 21:54:02 28° SSE 21:57:14 16° ESE
Cosmos 923 Rocket 4.2 21:49:24 10° NNW 21:54:36 70° WSW 21:59:10 13° S
SPOT 1/Viking Rocket 3.8 21:50:46 17° SE 21:54:38 54° ENE 21:59:39 10° N
Cosmos 2297 Rocket 4.1 21:55:00 11° E 21:55:19 11° E 21:56:31 10° E
MetOp-A 4.1 21:54:15 14° SSE 21:58:55 87° ENE 22:04:18 10° NNW
CZ-4 R/B 4.2 21:56:31 10° NNE 22:01:15 44° E 22:04:32 18° SSE
Cosmos 1328 3.8 21:57:41 10° S 22:01:37 83° W 22:05:36 10° N
Cosmos 2219 Rocket 3.4 21:58:10 10° N 22:03:01 29° ENE 22:06:29 16° ESE
Cosmos 1898 Rocket 3.9 21:59:20 15° SSE 22:03:17 42° ESE 22:08:10 10° NNE
ARGOS 3.4 21:59:48 19° SE 22:03:33 56° ENE 22:08:50 10° N
CZ-4C R/B 4.4 22:02:29 20° ESE 22:03:43 24° ENE 22:06:35 10° NNE
Cosmos 2150 Rocket 4.3 22:03:12 13° S 22:07:48 49° ESE 22:13:03 10° NNE
Cosmos 2151 3.5 22:04:37 10° SSW 22:08:44 57° W 22:12:54 10° N
USA 245 2.1 22:09:33 45° SE 22:10:09 66° ENE 22:12:31 10° N
Cosmos 2237 4.3 22:06:57 10° NNW 22:12:41 73° ENE 22:16:16 24° SSE
Sich 1 3.2 22:11:22 23° SSE 22:13:56 55° E 22:18:15 10° NNE
Tiangong 1 1.2 22:11:15 10° SW 22:14:14 46° SSE 22:14:50 40° ESE
SL-08 RB Rocket 3.9 22:12:52 26° SE 22:15:14 57° ENE 22:19:38 10° N
Cosmos 1726 2.3 22:12:33 10° N 22:16:18 57° E 22:17:46 32° SE
Cosmos 1633 Rocket 3.2 22:13:56 25° SSE 22:16:19 54° E 22:20:36 10° NNE
Cosmos 2219 3.5 22:18:28 10° SSW 22:24:12 70° WNW 22:29:57 10° NNE
Cosmos 1271 Rocket 3.2 22:22:08 10° N 22:25:50 45° ENE 22:26:53 35° ESE
SL-14 R/B 3.2 22:23:59 25° S 22:26:14 87° E 22:30:15 10° N
Cosmos 1703 3.6 22:25:25 36° SE 22:26:25 44° E 22:30:10 10° NNE
SPOT 5 4.0 22:23:11 12° SSW 22:27:03 36° W 22:31:27 10° NNW
Cosmos 2058 3.5 22:25:17 13° SSW 22:28:53 56° W 22:32:55 10° N
Cosmos 1805 Rocket 4.1 22:27:06 12° SSW 22:31:08 58° W 22:35:32 10° N
Cosmos 2333 4.2 22:26:10 10° NNW 22:31:55 78° ENE 22:34:53 30° SSE
NOSS 3-1 (A) 3.3 22:26:21 10° SSW 22:32:10 78° ESE 22:38:38 10° NE
Cosmos 2237 Rocket 3.2 22:28:03 10° N 22:33:14 34° ENE 22:36:00 22° ESE
Cosmos 2315 Rocket 4.4 22:27:30 10° NNW 22:33:35 59° W 22:38:37 15° SSW
Cosmos 2082 4.3 22:34:33 30° SE 22:36:18 37° ESE 22:41:30 10° NE
Meteor 1-27 4.4 22:31:02 10° NNW 22:36:42 73° W 22:40:12 24° S
Iridium 2 3.9 22:36:09 44° SE 22:36:57 54° E 22:40:43 10° NNE
USA 32 4.0 22:34:23 10° N 22:39:40 77° E 22:42:08 32° SSE
Meteor 1-4 Rocket 2.5 22:39:37 10° N 22:43:24 85° E 22:44:12 54° SSE
Cosmos 2360 Rocket 3.6 22:40:25 10° NW 22:45:16 30° WSW 22:49:08 14° SSW
COSMOS 2455 4.4 22:41:02 10° N 22:45:56 25° NE 22:49:34 15° E
NOAA 11 4.4 22:43:47 26° S 22:46:54 64° WSW 22:52:20 10° NNW
Meteor 2-10 4.2 22:41:28 10° N 22:47:12 72° E 22:49:41 35° SSE
ATLAS 2AS CENTAUR R/B 3.2 22:50:45 27° S 22:54:36 48° ESE 23:02:10 10° NE
Cosmos 1626 2.4 22:55:19 50° E 22:55:19 50° E 22:58:57 10° NNE
IGS 5A 3.4 22:58:25 55° SE 22:59:12 73° ENE 23:03:23 10° N
Nadezhda 1 Rocket 3.9 22:53:26 10° N 22:59:32 76° E 23:02:05 37° SSE
Cosmos 220 Rocket 4.0 22:58:39 34° SSW 23:00:32 79° WNW 23:04:59 10° NNE
Landsat 7 4.0 23:01:33 38° SSW 23:03:16 63° WSW 23:08:00 10° NNW
Cosmos 1937 Rocket 3.6 23:00:07 22° SSW 23:03:33 75° WNW 23:08:46 10° NNE
Cosmos 1470 Rocket 3.5 23:05:53 50° SSW 23:06:59 83° W 23:11:19 10° N
DELTA 2 R/B (1) 4.4 23:03:02 10° W 23:07:57 33° SSW 23:08:22 32° SSW
Cosmos 1933 Rocket 3.5 23:07:05 49° SSW 23:08:17 84° W 23:12:47 10° N
Cosmos 292 Rocket 3.9 23:04:01 10° NNW 23:08:44 64° WSW 23:09:59 45° SSW
Cosmos 1745 Rocket 4.1 23:07:00 25° SSW 23:10:44 73° W 23:16:57 10° N
Cosmos 2227 Rocket 2.1 23:08:49 36° S 23:11:13 77° ESE 23:16:54 10° NNE
ATLAS 3B R/B 3.5 23:07:00 10° NNW 23:13:37 41° NE 23:17:16 23° ESE
Cosmos 1346 3.9 23:14:23 49° NNW 23:14:23 49° NNW 23:16:46 10° N
Cosmos 990 Rocket 3.9 23:13:45 35° SSW 23:15:57 81° WNW 23:21:07 10° NNE
Spot 2 4.4 23:13:14 10° NNE 23:18:23 86° WNW 23:19:58 45° SSW
Cosmos 1709 Rocket 4.1 23:17:24 43° SE 23:19:06 58° E 23:25:05 10° NNE
Terra 2.0 23:17:55 46° SSW 23:19:08 63° W 23:23:52 10° NNW
Spot 4 3.8 23:18:40 54° S 23:19:45 81° WSW 23:24:38 10° NNW
H-2A R/B 2.5 23:19:47 37° SSW 23:21:38 57° W 23:26:59 10° NNW
Cosmos 2333 Rocket 2.2 23:17:51 10° NNW 23:23:39 84° WSW 23:25:14 50° SSE
SL-16 R/B 3.0 23:20:39 10° N 23:26:00 40° ENE 23:27:44 32° E
Cosmos 1269 Rocket 4.5 23:22:14 10° N 23:27:24 49° ENE 23:28:31 42° ESE
Cosmos 1455 2.4 23:24:29 10° NNW 23:28:13 60° W 23:28:13 60° W
NOSS 0 Rocket 4.1 23:25:25 10° NNW 23:31:30 65° WSW 23:33:18 45° S
Cosmos 389 Rocket 4.5 23:30:21 10° NNE 23:32:28 21° NE 23:32:28 21° NE
COSMOS 2428 4.3 23:30:27 10° NW 23:34:56 24° WSW 23:37:03 20° SW
Cosmos 1869 3.6 23:33:33 10° NNW 23:37:33 60° W 23:37:35 60° W
OAO 2 Rocket 4.5 23:33:17 10° WSW 23:36:15 31° SW 23:36:15 31° SW
Cosmos 2297 Rocket 2.1 23:36:45 48° SSW 23:38:26 89° ESE 23:44:08 10° NNE
CZ-4B R/B 3.9 23:44:19 15° NE 23:44:19 15° NE 23:45:53 10° NNE
Cosmos 2181 Rocket 4.0 23:38:10 10° N 23:44:34 77° E 23:46:15 52° SSE
Cosmos 2219 Rocket 3.0 23:41:52 10° NW 23:47:02 39° WSW 23:48:13 35° SW
Cosmos 1125 Rocket 3.4 23:50:17 66° SSW 23:51:04 88° ESE 23:56:25 10° NNE
SeaSat 1 2.6 23:52:14 56° E 23:52:53 62° ENE 23:57:46 10° NNW
Cosmos 1048 Rocket 4.1 23:47:57 10° NNW 23:53:18 67° ENE 23:54:01 60° ESE
